Weather Roundup
Issued by NWS Corpus Christi, TX

Home | Current Version | Previous Version | Text Only | Print | Product List | Glossary On
Versions: 1 2 3 4 5 6 7 8 9 10 11 12 13 14 15 16 17 18 19 20 21 22 23 24 25 26 27 28 29 30 31 32 33 34 35 36 37 38 39 40 41 42 43 44 45 46 47 48 49 50
000
ASUS44 KCRP 201410
HRRCRP

SOUTH TEXAS REGIONAL WEATHER ROUNDUP
NATIONAL WEATHER SERVICE CORPUS CHRISTI TX
800 AM CST MON FEB 20 2017


TXZ229>244-201500-
...CORPUS CHRISTI AREA OBSERVATIONS...

CITY           SKY/WX    TMP DP  RH WIND       PRES   REMARKS
CORPUS CHRISTI LGT RAIN  63  63 100 E7        29.95R
NAS CORPUS CHR LGT RAIN  64  64 100 NE12      29.95R
ROCKPORT       LGT RAIN  63  61  93 NE13      29.95R
KINGSVILLE NAS CLOUDY    64  64 100 CALM      29.95R
ALICE          LGT RAIN  63  62  97 NW8       29.95R
ORANGE GROVE   CLOUDY    63  63 100 NW6       29.97R
FALFURRIAS     CLOUDY    64  62  96 N3        29.93S
$$

...VICTORIA AREA OBSERVATIONS...

CITY           SKY/WX    TMP DP  RH WIND       PRES   REMARKS
VICTORIA       LGT RAIN  61  59  93 NE17      29.94S
BEEVILLE       LGT RAIN  55  55 100 CALM      29.95R
PLEASANTON     CLOUDY    60  60 100 N3        29.97S
SAN ANTONIO    CLOUDY    60  58  92 N5        29.99R
$$

...LAREDO AREA OBSERVATIONS...

CITY           SKY/WX    TMP DP  RH WIND       PRES   REMARKS
LAREDO         CLOUDY    60  57  89 W8        30.00R
COTULLA        CLOUDY    60  57  89 NW5       29.96R
DEL RIO        CLEAR     52  45  77 NW3       30.00R
MCALLEN        LGT RAIN  67  63  87 N10       29.93R
HEBBRONVILLE   PTSUNNY   60  58  93 NW9       29.98R
$$

...OTHER TEXAS OBSERVATIONS...

CITY           SKY/WX    TMP DP  RH WIND       PRES   REMARKS
BROWNSVILLE    CLOUDY    67  64  90 CALM      29.94R
HOUSTON        LGT RAIN  62  60  93 N9        30.01R FOG
COL. STATION   HVY RAIN  58  58 100 NE10      30.00R FOG
AUSTIN         LGT RAIN  60  60 100 CALM      29.98R
WACO           CLOUDY    57  57 100 MISG      29.94R
FORT WORTH     CLOUDY    59  57  93 SE14      29.90F
WICHITA FALLS  CLOUDY    54  52  93 S15       29.86R
LUBBOCK        PTCLDY    43  33  68 W13       29.89R
EL PASO        PTCLDY    47  35  63 W13G21    30.12R
$$

...MARINE OBSERVATIONS...

STATION/POSITION TIME  SKY/WX   TEMP    WIND        PRES    VSBY  WAVE   SWELL
                                AIR SEA DIR/SP/G                  HT/PER HT/PER
                 (UTC)          (F)     (DEG/KT/KT) (MB)    (MI)  (FT/S) (FT/S)
PORT ARANSAS     1400            64 68   30/ 15/ 17 1013.4R
BUOY 90 E PORT A 1350            73 70  180/ 10/ 12 1014.1R         7/ 7   7/ 7
BUOY 45 SE BAFFI 1350            67     280/ 10/ 14 1012.2F         6/ 8   5/ 8
BUOY 200 E PT IS 1350            75 75  140/ 17/ 21 1011.7R         7/ 8
BUOY 15 E GALVES 1350            66 65   80/  4/  6 1014.3R         5/ 7   5/ 7
$$




USA.gov is the U.S. government's official web portal to all federal, state and local government web resources and services.